Wetbulb
43.03 38.68 35.84 38.73 39.54 39.35 37.87 35.60 34.79 37.73 40.96 40.59 40.08 41.70 44.07 46.80 47.96 48.53 49.43 50.72 51.90 53.23 62.34 70.89 71.16 70.60 71.23 71.93 71.22 71.06 70.91 71.34 70.52 71.32 70.67 71.05 70.59 71.16 71.50 72.02 72.52 72.63 72.18 71.82
38.89 35.49 41.20 42.37 40.96 38.16 37.52 35.28 35.22 38.47 40.08 39.35 38.67 39.06 43.35 45.76 46.99 48.84 49.79 50.60 51.90 53.31 63.78 68.93 69.87 70.43 70.31 70.24 69.85 70.51 71.58 72.64 71.99 71.55 71.64 71.52 71.39 71.29 71.96 72.36 72.98 73.32 73.56 73.23
37.23 39.78 42.17 39.81 38.56 36.44 36.53 34.82 35.37 34.66 38.62 39.88 37.95 35.93 38.91 43.77 46.76 48.63 50.72 51.89 52.75 53.39 61.82 67.27 68.59 69.10 69.46 69.56 69.76 70.09 71.21 71.04 71.77 71.76 71.75 72.59 72.81 72.42 70.68 70.50 71.16 68.99 67.84 68.40
39.23 42.75 40.07 39.12 37.36 38.44 33.67 39.81 37.23 36.06 34.17 30.39 38.69 29.01 36.94 41.62 42.79 46.54 49.47 51.26 51.78 53.02 60.81 67.22 67.99 68.55 69.24 69.82 71.26 70.87 70.78 70.72 71.17 71.57 71.52 72.31 70.50 67.48 67.95 68.20 66.89 66.85 67.53 66.52
36.83 38.82 38.17 37.30 38.51 40.69 36.33 40.59 37.78 36.72 34.67 33.61 33.71 31.76 36.41 41.84 42.04 44.84 48.33 50.95 52.05 53.51 58.66 65.74 67.52 68.56 69.57 70.54 70.43 70.59 71.00 71.10 71.96 72.14 72.85 69.18 66.72 66.21 65.90 65.29 64.28 64.14 63.51 65.92
39.66 44.06 41.69 40.61 41.84 40.80 41.42 37.36 36.27 35.61 33.66 25.20 31.97 32.08 33.66 38.14 42.30 46.24 48.27 51.25 52.01 52.33 57.78 66.05 68.28 69.14 69.41 70.19 69.77 69.89 70.33 70.75 72.33 71.87 69.81 68.29 66.11 65.18 63.98 63.98 62.92 62.44 61.19 60.38
37.97 38.77 42.51 43.14 37.69 39.58 38.34 34.01 26.47 24.27 24.17 23.85 34.46 31.32 34.70 42.77 45.85 47.77 48.61 50.98 52.10 52.34 60.41 65.44 67.36 67.69 68.04 68.04 68.63 69.21 68.88 69.85 70.89 69.71 68.49 68.30 67.69 66.92 63.89 64.22 62.97 60.64 60.00 59.42
30.90 30.15 38.23 42.11 38.76 36.40 36.42 34.50 27.51 19.40 21.63 27.01 34.09 27.99 34.94 42.63 47.06 49.58 51.02 52.35 51.86 51.82 61.79 65.62 67.44 67.99 67.55 67.85 68.14 67.99 69.20 69.67 69.73 68.81 68.21 69.29 69.01 68.72 67.41 65.23 64.80 63.35 60.57 57.99
33.07 32.13 40.96 42.12 42.41 38.95 34.70 30.86 36.46 29.22 31.20 27.83 31.83 35.68 41.56 43.05 45.05 47.76 49.40 50.42 51.04 51.74 61.74 65.49 67.52 67.44 65.63 66.21 66.38 67.24 68.44 68.41 69.62 67.59 68.49 69.31 68.55 66.43 63.79 63.64 62.80 61.28 60.00 59.60
35.07 30.49 37.83 40.25 41.99 40.41 36.88 38.44 28.52 30.87 22.16 21.48 28.93 31.15 33.62 40.39 42.04 47.19 49.14 49.53 51.50 53.03 60.18 64.86 66.09 64.65 64.96 64.77 65.27 66.01 66.46 66.70 67.19 67.54 68.44 67.32 64.84 62.38 61.81 61.41 58.94 59.26 58.46 57.29
35.15 31.27 33.68 38.71 36.31 34.75 35.07 33.16 33.50 33.93 32.03 26.13 26.08 30.91 41.10 44.90 45.66 47.20 49.78 50.91 51.36 55.79 60.07 63.46 63.31 62.74 62.47 61.36 61.74 62.30 63.42 63.82 64.13 64.18 63.19 61.81 61.21 61.56 60.35 60.16 59.25 57.66 56.32 55.31
36.80 33.83 31.76 32.93 40.12 40.90 39.03 35.84 35.04 29.85 27.40 31.44 32.82 34.72 46.64 48.24 49.64 50.22 50.60 49.90 55.01 59.59 61.57 60.85 59.24 59.77 59.79 59.10 59.51 59.41 60.30 60.24 60.36 60.44 60.05 58.93 58.43 57.92 57.90 56.55 56.42 55.77 54.53 53.86
36.91 34.01 29.93 30.87 36.25 38.53 36.19 37.46 37.70 37.24 35.34 29.04 26.42 37.45 51.07 52.85 51.57 48.94 50.05 54.38 59.41 59.72 57.89 57.72 57.97 57.32 56.39 56.47 56.78 57.02 57.64 57.34 58.74 58.86 57.45 57.24 55.78 55.11 54.00 53.94 54.18 54.50 53.21 52.60
40.25 35.29 34.08 29.89 31.95 36.62 33.75 35.93 37.34 35.45 29.78 29.68 30.13 31.99 41.83 50.59 48.72 52.27 55.84 58.36 57.88 56.42 56.58 56.05 55.01 54.45 54.52 54.66 54.96 54.96 55.24 55.94 56.24 56.89 57.18 56.02 55.10 54.65 54.45 55.16 54.53 53.58 52.82 51.24
37.94 32.90 35.79 37.21 37.73 37.71 37.23 35.70 36.60 34.21 34.97 32.46 33.65 35.10 40.31 51.10 53.29 55.54 55.76 56.18 55.24 54.45 54.72 53.76 53.14 52.70 54.03 55.24 55.68 55.07 55.07 55.33 55.81 54.94 54.10 53.94 54.77 55.23 55.21 53.94 53.33 52.62 51.78 50.68
38.06 34.37 36.71 35.56 39.05 38.25 35.69 37.65 37.77 38.42 37.95 37.42 37.37 36.91 46.10 54.64 55.84 54.07 54.00 53.43 52.72 52.64 52.13 51.97 51.95 53.47 54.76 55.41 55.86 56.02 55.67 55.54 56.39 56.08 54.90 55.44 55.99 55.40 54.09 53.06 52.30 51.47 50.34 49.85
35.65 36.75 34.80 33.06 38.05 37.69 33.86 36.80 38.55 38.96 39.34 38.60 35.03 41.63 51.63 51.64 51.79 52.03 52.30 52.16 51.22 50.58 50.45 50.39 51.17 53.21 54.04 54.55 55.56 54.98 54.83 54.67 54.41 55.12 55.61 55.50 55.04 53.83 52.98 52.89 51.89 50.66 49.42 49.29
34.62 36.39 36.68 34.64 36.08 28.07 36.61 39.28 39.34 37.89 39.23 41.57 42.43 44.75 45.05 45.33 48.41 50.79 51.87 50.99 50.57 50.35 50.16 50.65 51.08 52.39 53.10 54.50 54.42 54.89 54.99 55.06 55.01 54.79 54.66 54.81 53.80 53.28 53.35 52.46 51.06 50.23 48.53 47.42
36.56 35.28 35.66 34.06 32.95 35.80 36.37 35.71 34.72 32.08 33.57 40.76 42.62 43.63 44.35 45.88 45.13 43.77 48.36 48.93 48.66 49.09 49.99 50.72 52.89 52.74 53.14 52.58 53.73 53.76 53.68 53.81 53.76 53.26 53.29 53.69 53.94 53.29 52.92 51.77 51.01 49.48 48.27 47.39
34.96 36.46 37.91 35.69 30.10 27.32 33.18 35.38 37.48 37.38 32.36 40.93 42.54 45.51 46.05 48.00 39.25 40.06 46.00 47.36 47.40 48.32 48.86 49.93 50.21 50.58 51.32 51.65 52.68 52.60 52.02 52.19 51.70 52.08 52.45 53.76 54.36 53.60 52.53 51.87 50.61 49.18 48.70 47.62
29.36 29.81 30.01 31.53 31.47 33.84 33.69 34.40 39.34 35.15 33.09 40.23 43.84 45.63 45.88 42.09 42.00 43.74 44.44 43.93 45.61 46.45 47.94 49.13 49.11 48.03 49.00 50.69 51.12 49.72 49.44 49.07 50.18 50.98 51.13 50.99 52.88 53.61 53.08 51.67 49.48 47.94 47.22 46.98
27.14 25.41 27.55 30.49 30.24 29.15 34.96 35.56 36.09 37.41 40.08 42.19 42.51 42.26 40.61 40.70 40.83 41.55 42.41 42.68 43.81 44.78 47.18 47.76 46.83 46.33 47.95 49.86 49.55 48.33 46.94 48.27 48.62 48.33 47.52 47.90 50.69 51.77 51.96 50.46 48.29 47.11 45.07 43.64
27.52 29.07 26.02 28.80 29.75 35.03 35.01 34.82 40.17 42.25 39.61 41.98 40.57 41.22 41.39 39.29 39.01 40.10 40.03 41.97 43.31 45.34 45.91 46.46 44.77 44.76 46.18 47.65 48.11 45.72 45.82 46.97 46.64 46.11 46.72 47.43 48.21 48.48 47.61 45.41 44.12 42.73 42.10 41.11
30.71 32.79 30.25 30.23 33.65 31.49 34.52 38.10 42.28 44.86 43.03 42.76 41.94 40.52 39.90 38.40 38.99 39.33 39.34 40.43 42.11 44.28 44.33 45.15 44.06 42.27 41.55 44.20 45.74 46.01 46.09 46.73 46.66 45.70 45.70 46.62 46.21 44.43 43.38 42.34 42.20 41.14 40.56 40.93
31.17 32.29 29.52 30.78 31.79 32.71 35.02 36.52 40.12 41.62 42.65 42.74 43.20 42.80 41.60 40.02 38.73 38.47 38.15 38.53 40.07 40.95 42.22 42.39 41.23 40.49 40.38 43.09 43.81 45.26 45.92 46.61 45.58 45.21 44.99 44.01 42.80 41.98 40.63 40.77 40.47 40.37 42.00 41.53
32.92 30.49 27.82 28.47 31.83 31.47 32.00 37.48 40.23 39.84 40.09 41.03 40.15 39.74 41.41 40.13 38.35 38.57 37.36 37.67 38.51 39.23 39.98 38.97 38.16 38.50 38.90 40.78 42.59 43.86 45.57 46.10 45.48 44.87 43.97 43.05 42.69 42.12 41.88 40.92 39.66 36.76 37.00 36.63
MSLP
1010.90 1010.76 1009.86 1009.43 1009.74 1009.54 1009.50 1009.24 1008.90 1008.71 1008.18 1007.42 1005.74 1004.82 1004.27 1004.26 1003.16 1002.67 1002.18 1001.44 1000.84 1000.75 1000.62 1001.59 1002.52 1003.57 1004.48 1005.53 1006.30 1006.88 1007.43 1008.24 1009.15 1009.58 1009.91 1010.30 1010.65 1011.47 1012.07 1012.42 1012.98 1013.35 1013.77 1014.12
1010.68 1009.25 1008.97 1009.11 1009.27 1009.44 1009.16 1008.75 1008.64 1008.29 1008.07 1007.79 1005.93 1005.06 1004.22 1003.64 1002.36 1002.38 1001.93 1001.04 1000.51 1000.54 1000.76 1001.27 1002.22 1003.00 1003.85 1004.96 1005.93 1006.38 1006.99 1007.83 1008.78 1009.14 1009.78 1010.15 1010.64 1011.58 1012.07 1012.60 1013.04 1013.36 1013.88 1014.40
1009.64 1008.19 1008.57 1008.75 1008.71 1008.77 1008.48 1008.44 1008.57 1008.24 1008.06 1007.47 1006.27 1004.44 1003.34 1002.30 1002.06 1001.78 1001.19 1000.50 1000.17 1000.04 1000.09 1000.73 1001.57 1002.60 1003.66 1004.72 1005.37 1005.77 1006.63 1007.64 1008.50 1009.20 1010.03 1010.56 1011.26 1011.86 1012.77 1013.28 1013.59 1014.21 1014.62 1015.06
1008.87 1007.88 1007.75 1007.85 1007.68 1008.12 1007.18 1008.00 1008.43 1008.23 1008.31 1006.63 1005.87 1003.28 1001.60 1001.04 1000.34 1000.52 1000.03 999.73 999.29 999.52 999.80 1000.09 1000.86 1001.97 1003.00 1003.66 1004.50 1005.65 1006.66 1007.73 1008.57 1009.34 1009.98 1010.50 1011.15 1012.35 1013.25 1013.73 1014.36 1014.88 1015.14 1015.57
1008.20 1007.98 1007.79 1007.39 1006.97 1007.31 1006.86 1007.83 1008.17 1008.35 1007.96 1007.16 1005.57 1004.17 1000.19 1000.36 999.39 998.52 998.63 998.52 998.35 998.57 999.11 999.50 1000.35 1001.47 1002.12 1003.28 1004.45 1005.70 1006.73 1007.68 1008.58 1009.36 1009.98 1010.95 1012.01 1013.08 1013.96 1014.52 1015.03 1015.57 1016.16 1016.20
1007.68 1007.87 1007.79 1006.60 1006.84 1007.14 1007.65 1008.40 1008.60 1008.84 1008.16 1006.73 1003.76 1003.18 999.47 999.13 997.84 997.32 997.01 997.38 997.30 997.91 998.28 999.22 1000.16 1001.10 1002.25 1003.54 1004.68 1005.80 1006.82 1007.81 1008.68 1009.54 1010.41 1011.26 1012.19 1013.12 1014.11 1014.77 1015.20 1016.02 1016.47 1016.74
1007.50 1006.73 1006.53 1006.38 1007.00 1007.48 1008.00 1008.37 1008.34 1008.22 1007.26 1004.18 1003.26 1002.59 999.63 997.70 997.08 996.46 995.72 996.42 996.81 997.36 997.92 998.82 999.83 1000.96 1002.50 1003.57 1004.85 1005.92 1007.12 1007.96 1008.64 1009.65 1010.56 1011.44 1012.25 1013.04 1013.70 1014.19 1014.68 1015.41 1016.09 1016.64
1007.93 1006.23 1006.05 1006.14 1006.20 1006.47 1007.12 1006.87 1006.34 1006.06 1004.89 1002.97 1002.70 1000.36 998.18 998.02 997.10 996.40 995.96 996.19 996.93 997.36 997.91 998.89 999.94 1001.01 1002.53 1003.84 1005.03 1006.08 1007.12 1008.02 1008.93 1009.72 1010.67 1011.40 1011.96 1012.64 1013.31 1014.04 1014.57 1015.05 1015.60 1016.11
1008.52 1006.65 1005.86 1005.49 1005.58 1006.63 1006.67 1006.15 1006.03 1006.13 1004.54 1002.79 1000.49 998.89 997.45 996.62 996.17 995.88 995.87 996.11 996.23 997.14 997.90 999.30 1000.32 1001.66 1003.11 1004.30 1005.36 1006.25 1007.17 1008.27 1009.12 1009.98 1010.71 1011.32 1012.06 1012.82 1013.67 1014.48 1015.24 1015.95 1016.67 1016.84
1009.06 1007.48 1005.57 1005.04 1005.20 1006.09 1006.63 1006.08 1006.28 1006.11 1004.14 1001.71 998.74 997.58 996.04 994.73 995.00 995.13 995.00 995.52 996.12 997.23 998.33 999.73 1001.13 1002.66 1003.78 1005.00 1006.00 1006.91 1007.72 1008.41 1009.28 1010.05 1010.75 1011.58 1012.57 1013.54 1014.28 1015.17 1016.11 1016.96 1017.66 1017.56
1009.03 1008.33 1006.12 1005.46 1004.87 1004.74 1006.03 1005.91 1005.66 1004.93 1003.46 1001.31 998.41 995.80 995.12 993.81 993.77 994.16 994.14 994.99 995.94 997.28 998.63 1000.26 1001.76 1003.28 1004.62 1005.82 1006.67 1007.57 1008.34 1008.96 1009.81 1010.71 1011.52 1012.36 1013.29 1014.01 1014.94 1015.90 1016.63 1017.20 1018.22 1018.78
1008.87 1008.00 1006.22 1004.94 1004.00 1003.99 1004.14 1004.32 1004.39 1003.62 1002.96 1001.97 999.34 995.53 993.87 993.98 993.43 993.73 994.19 995.29 996.37 997.95 999.70 1001.48 1002.88 1004.14 1005.40 1006.47 1007.52 1008.28 1009.15 1009.80 1010.57 1011.42 1012.20 1013.28 1013.99 1014.72 1015.41 1016.40 1017.33 1017.99 1018.55 1018.96
1008.55 1007.47 1005.62 1004.51 1003.91 1003.79 1003.66 1003.39 1003.56 1003.47 1003.40 1002.55 1001.17 997.07 995.88 994.79 994.31 994.52 995.02 995.60 997.25 999.23 1001.09 1002.63 1003.87 1004.97 1006.19 1007.48 1008.26 1009.20 1009.96 1010.54 1011.20 1012.05 1013.05 1013.93 1014.71 1015.32 1016.16 1017.14 1017.96 1018.46 1018.88 1019.33
1008.40 1007.13 1005.69 1003.97 1002.90 1003.01 1002.68 1002.55 1002.88 1003.08 1003.41 1003.15 1001.90 1000.30 997.37 995.21 994.55 994.94 996.00 996.88 998.77 1000.44 1001.94 1003.28 1004.79 1006.15 1007.27 1008.28 1009.13 1009.91 1010.56 1011.29 1011.87 1012.61 1013.53 1014.53 1015.43 1016.10 1016.92 1017.64 1018.36 1018.74 1019.08 1019.53
1007.80 1006.43 1005.09 1003.63 1002.73 1002.38 1002.16 1002.18 1002.62 1002.52 1003.39 1002.58 1001.52 1000.76 998.25 995.72 994.96 995.84 997.13 998.27 1000.10 1001.76 1003.04 1004.34 1005.59 1006.83 1007.70 1008.55 1009.58 1010.09 1010.95 1011.79 1012.43 1013.29 1014.10 1015.12 1015.96 1016.72 1017.44 1018.19 1018.82 1019.32 1019.73 1020.24
1007.72 1006.22 1004.72 1003.18 1002.06 1001.66 1001.74 1002.42 1002.62 1001.86 1002.44 1002.00 1001.72 1000.28 997.88 996.28 996.66 997.61 998.86 999.86 1001.36 1002.96 1004.19 1005.52 1006.44 1007.33 1008.25 1008.91 1009.43 1010.16 1011.41 1012.34 1012.96 1013.90 1014.76 1015.58 1016.35 1017.23 1017.96 1018.79 1019.46 1020.11 1020.66 1021.10
1007.91 1006.28 1004.84 1003.49 1002.21 1002.00 1002.73 1003.59 1002.94 1002.86 1002.66 1002.56 1001.64 999.68 998.20 998.32 998.78 999.42 1000.36 1001.49 1002.53 1004.04 1005.32 1006.36 1007.30 1008.12 1008.84 1009.66 1009.93 1010.76 1011.97 1013.00 1013.66 1014.48 1015.36 1016.20 1017.02 1017.86 1018.67 1019.54 1020.18 1020.76 1021.28 1021.58
1008.47 1006.84 1005.18 1004.10 1003.27 1002.88 1003.92 1004.48 1004.48 1003.74 1002.38 1002.05 1001.14 1000.12 999.90 1000.30 1000.82 1001.63 1002.56 1003.04 1004.18 1005.33 1006.50 1007.34 1007.98 1008.99 1009.80 1010.31 1011.02 1011.86 1012.78 1013.59 1014.52 1015.36 1016.08 1016.81 1017.66 1018.57 1019.39 1020.05 1020.83 1021.24 1021.71 1022.11
1008.82 1007.78 1005.73 1004.68 1004.32 1004.46 1004.59 1005.56 1005.90 1005.58 1004.11 1002.75 1002.00 1001.15 1001.38 1001.90 1002.33 1004.56 1004.84 1005.54 1006.14 1007.02 1007.85 1008.28 1009.19 1010.06 1010.82 1011.40 1011.93 1012.73 1013.78 1014.82 1015.62 1016.31 1016.96 1017.58 1018.32 1019.13 1019.90 1020.56 1021.30 1021.76 1022.09 1022.46
1009.22 1007.97 1006.62 1005.75 1005.77 1006.28 1006.66 1006.82 1006.34 1006.33 1005.86 1004.44 1003.84 1002.49 1002.34 1002.56 1004.88 1007.17 1007.15 1007.14 1007.98 1008.54 1009.08 1009.55 1010.68 1011.26 1011.68 1012.68 1013.31 1013.79 1014.80 1015.88 1016.66 1017.21 1017.80 1018.43 1018.90 1019.54 1020.45 1021.13 1021.74 1022.33 1022.67 1022.78
1010.56 1009.45 1008.62 1007.66 1007.42 1008.00 1008.67 1007.56 1006.34 1006.30 1007.42 1005.78 1004.75 1004.07 1003.95 1004.90 1006.73 1007.91 1008.37 1008.83 1009.42 1009.86 1010.37 1011.09 1011.91 1012.34 1013.23 1013.89 1014.46 1015.36 1016.41 1017.17 1017.72 1018.24 1018.83 1019.37 1019.81 1020.17 1021.12 1021.78 1022.44 1022.86 1023.17 1023.29
1013.29 1012.30 1010.95 1010.12 1009.71 1010.19 1010.04 1008.10 1007.75 1008.07 1007.17 1006.01 1006.46 1006.34 1006.01 1006.85 1008.44 1009.36 1009.68 1010.06 1010.80 1011.18 1011.89 1012.62 1013.06 1014.01 1014.33 1015.26 1015.86 1016.92 1017.81 1018.43 1018.68 1019.12 1019.74 1020.12 1020.48 1020.96 1021.63 1022.23 1022.91 1023.37 1023.58 1023.72
1014.38 1014.79 1014.02 1013.16 1012.52 1012.26 1011.89 1011.02 1009.12 1007.82 1008.24 1007.57 1007.49 1008.00 1007.53 1008.47 1009.93 1011.02 1011.21 1011.76 1012.28 1012.62 1013.24 1013.89 1014.52 1015.18 1015.81 1016.51 1017.22 1017.83 1018.89 1019.18 1019.48 1019.87 1020.31 1020.85 1021.40 1021.96 1022.60 1022.92 1023.36 1023.76 1024.06 1024.06
1015.09 1015.38 1014.82 1014.26 1013.46 1013.12 1012.33 1010.93 1009.56 1008.16 1008.13 1008.88 1008.98 1009.27 1009.38 1009.78 1011.46 1012.56 1013.04 1013.79 1013.90 1014.28 1014.65 1015.09 1015.46 1016.48 1017.46 1017.93 1018.54 1018.98 1019.47 1019.85 1020.06 1020.46 1021.00 1021.57 1022.02 1022.71 1023.35 1023.73 1024.09 1024.51 1024.66 1024.75
1016.15 1016.14 1015.70 1014.88 1014.34 1013.75 1012.94 1012.19 1011.21 1010.24 1009.73 1009.65 1010.44 1010.95 1010.93 1011.07 1012.82 1013.69 1015.19 1015.44 1015.67 1015.99 1016.41 1016.58 1017.00 1017.94 1018.36 1018.79 1019.59 1020.04 1020.12 1020.43 1020.80 1021.40 1021.94 1022.42 1022.97 1023.50 1024.26 1024.80 1025.29 1025.51 1025.75 1025.62
1017.08 1016.63 1016.60 1016.10 1016.06 1015.81 1014.98 1013.69 1012.72 1011.85 1011.50 1011.52 1011.33 1012.12 1012.21 1012.51 1014.03 1014.88 1016.30 1017.28 1017.16 1017.45 1017.80 1018.22 1018.84 1019.02 1019.56 1019.86 1020.27 1020.84 1021.06 1021.22 1021.47 1021.98 1022.62 1023.20 1023.68 1024.14 1024.54 1024.89 1025.88 1026.72 1026.86 1026.84
Wind_Speed
6 9 14 19 17 17 14 16 16 12 10 11 19 16 17 14 20 18 16 16 13 13 14 19 19 21 19 18 15 16 15 14 12 11 10 8 8 6 5 4 5 5 4 5
6 17 20 20 18 19 20 21 19 16 15 15 22 22 20 17 24 17 17 19 16 10 14 20 21 20 20 18 16 15 16 16 13 9 7 4 7 5 4 5 6 7 8 9
16 18 9 12 17 20 21 22 16 20 10 17 19 24 26 24 24 19 19 20 17 14 17 21 21 21 20 19 19 18 15 15 13 10 8 7 8 8 5 6 6 10 12 9
15 13 18 19 23 18 24 18 18 17 10 10 10 14 19 15 26 22 21 20 19 14 18 21 22 21 21 21 19 16 15 14 12 13 10 10 6 6 4 7 8 8 10 9
11 10 7 14 20 18 21 16 15 16 16 15 17 12 17 17 17 24 24 21 20 15 20 22 22 21 22 17 15 14 14 14 13 13 11 10 12 9 7 8 11 10 9 10
26 18 15 20 17 13 4 9 8 10 10 11 25 18 14 17 24 20 24 21 20 15 20 20 21 20 16 14 14 14 15 14 15 15 15 16 16 13 10 9 9 6 6 7
8 15 14 10 11 5 11 9 5 8 8 16 12 18 19 20 22 23 24 20 18 14 17 19 20 18 17 17 16 16 17 16 18 18 17 18 17 17 15 13 10 11 7 8
4 7 10 11 12 9 14 17 7 8 9 12 13 16 19 30 23 12 15 16 13 15 17 17 19 17 16 17 17 17 19 19 19 17 18 16 18 11 9 10 9 9 10 10
5 8 6 12 12 8 3 13 10 5 11 10 15 17 17 25 21 21 16 16 17 17 18 19 18 16 17 17 15 17 19 18 18 16 15 14 12 11 11 11 10 7 11 11
2 10 9 3 7 10 4 5 7 6 6 11 15 22 13 22 25 18 18 20 17 16 19 18 18 17 15 14 13 16 16 15 15 15 12 10 10 13 12 11 13 13 10 11
5 7 1 5 8 9 5 4 4 6 9 6 11 15 19 14 24 22 21 22 20 19 19 19 16 17 18 14 15 14 13 13 13 10 12 13 13 15 14 13 13 13 12 10
8 4 5 7 5 3 11 7 15 10 9 8 7 3 12 15 15 21 18 19 21 21 20 18 18 19 18 15 14 13 12 13 12 13 14 14 14 15 15 14 14 13 13 11
4 4 2 4 5 1 6 14 15 12 5 10 6 3 4 6 10 12 19 24 23 23 19 18 19 17 17 15 14 13 13 14 14 17 16 15 15 14 14 14 13 13 13 12
7 4 5 6 4 1 5 10 14 15 7 6 11 21 23 9 15 19 22 25 23 20 21 20 18 17 16 15 15 15 15 14 14 16 17 17 14 14 15 14 13 13 12 11
3 4 3 12 14 13 11 9 9 12 14 7 9 15 18 11 21 23 24 25 23 21 20 19 19 17 18 19 19 17 16 15 15 16 15 15 14 16 16 14 13 13 12 11
3 4 6 4 5 8 8 10 11 13 10 12 11 18 17 17 20 19 23 24 22 21 21 20 20 20 22 21 20 20 19 17 17 17 17 16 16 15 15 14 13 12 11 10
5 6 5 4 2 5 6 3 9 9 7 12 6 8 17 16 18 18 20 20 23 22 21 21 20 20 18 19 19 20 19 17 16 18 16 15 15 14 14 13 12 11 11 10
6 7 4 3 2 3 5 11 7 10 12 13 8 10 21 20 19 18 16 20 21 20 20 19 18 20 19 20 20 20 19 18 18 17 16 14 14 13 13 12 11 11 10 9
8 4 4 3 3 2 5 10 7 8 10 15 4 20 22 23 27 18 16 18 18 18 17 18 18 19 19 20 19 21 19 17 16 16 14 14 13 13 12 12 10 9 9 9
8 6 4 3 2 4 4 15 15 2 3 12 10 17 20 20 14 5 12 20 19 18 17 19 20 19 19 19 18 19 18 17 15 14 13 12 13 13 11 11 10 9 8 9
8 6 7 6 3 3 10 24 10 5 6 14 7 4 14 13 9 13 16 19 17 18 20 21 19 18 17 16 19 19 17 15 14 13 13 12 11 12 11 11 9 8 8 7
5 8 5 5 3 2 19 14 9 4 13 11 12 14 23 23 19 15 18 20 19 20 22 21 19 17 16 18 18 17 16 13 13 13 13 12 11 9 9 11 9 8 7 7
2 4 6 4 4 6 12 12 16 11 6 5 13 12 21 22 19 15 16 18 17 21 19 18 18 18 17 16 15 17 13 12 13 14 13 12 12 11 10 10 9 7 7 6
2 3 3 7 3 13 11 16 15 7 10 12 14 15 20 24 20 17 15 14 15 17 18 17 19 18 16 15 15 14 12 12 14 14 13 11 12 11 10 8 8 7 6 6
3 8 8 5 4 10 12 17 13 11 11 16 16 14 20 22 20 19 13 13 13 15 15 15 17 15 15 15 13 11 12 13 13 13 12 11 10 11 10 9 7 8 8 7
4 6 4 3 7 4 7 12 11 12 11 12 19 18 16 21 18 18 12 9 11 13 15 15 13 14 14 14 13 11 11 12 13 12 9 8 8 8 8 9 9 14 12 10
Wind_Direction
201 225 235 243 235 249 260 261 262 261 273 286 261 275 273 276 274 268 267 267 263 245 208 190 176 178 177 180 176 176 171 174 175 182 183 186 182 175 176 188 192 192 180 174
239 245 254 256 253 247 251 257 259 262 250 257 265 270 269 260 265 265 267 261 259 237 192 181 179 178 180 173 179 176 185 182 187 181 177 170 158 162 154 149 133 126 105 94
262 265 281 243 248 244 243 249 252 254 262 259 267 269 264 253 257 256 253 254 256 228 194 182 177 179 178 181 184 183 179 178 179 162 149 120 118 122 93 91 92 95 94 80
275 288 249 251 251 243 257 240 239 242 242 254 205 267 257 247 244 239 243 241 241 219 203 183 178 177 176 192 190 180 171 167 160 158 150 144 139 112 90 99 93 84 88 87
249 261 233 234 248 252 255 247 233 237 239 263 248 257 262 241 240 226 229 232 236 222 198 188 175 176 188 183 177 165 159 155 153 154 142 110 103 100 95 97 93 82 73 79
261 258 268 254 258 256 249 214 238 221 233 241 240 226 249 232 219 224 221 220 228 206 197 187 177 175 173 169 155 145 142 143 139 124 120 117 118 118 115 117 108 108 96 89
300 254 238 240 231 227 185 155 178 196 198 240 233 233 236 207 227 224 217 211 213 199 190 180 172 164 159 153 147 142 136 133 129 123 121 126 128 135 144 147 146 139 121 109
287 300 187 183 210 202 199 194 190 212 213 246 217 225 232 231 243 249 247 211 195 185 180 179 171 162 154 147 142 144 138 133 128 131 132 137 142 155 147 139 143 134 133 136
280 248 238 213 213 189 180 209 206 317 247 256 223 231 250 229 227 235 240 192 182 181 172 174 162 151 146 144 138 142 136 134 137 140 141 155 152 141 128 122 108 95 114 120
290 279 250 309 190 185 206 195 169 215 242 232 229 227 234 203 213 221 211 196 178 172 162 154 147 139 130 120 122 123 129 134 139 143 147 136 113 113 106 108 107 109 107 113
204 220 314 174 203 196 184 182 192 257 239 273 276 222 208 219 199 204 201 182 168 163 153 143 130 125 114 110 113 116 118 117 120 115 110 114 111 115 106 114 116 114 118 112
205 272 252 239 138 125 201 199 206 221 225 234 285 204 190 207 195 194 194 164 157 144 140 129 126 121 112 108 112 111 116 113 113 110 106 107 109 113 114 112 114 118 113 104
186 236 278 199 212 156 204 215 220 237 271 284 340 71 343 201 161 165 159 148 140 130 123 129 121 110 110 112 111 110 111 108 114 112 111 112 109 104 102 109 116 113 111 104
200 242 270 278 317 142 224 208 218 226 269 314 262 290 282 169 150 145 147 135 127 125 133 119 107 109 112 113 115 117 109 110 114 118 118 111 107 108 110 111 107 99 91 87
268 269 260 279 261 255 244 201 194 213 227 252 309 286 297 165 143 138 137 125 124 123 118 117 119 117 120 120 121 113 110 113 113 107 103 103 106 112 110 104 95 89 85 85
291 295 306 294 14 206 201 184 199 251 260 239 252 275 265 144 115 126 128 126 126 121 117 118 116 122 123 124 121 115 114 113 114 112 109 112 111 108 102 101 98 94 92 91
298 310 324 16 323 130 131 37 324 316 307 293 241 240 124 111 117 116 121 124 123 119 121 119 120 119 118 121 120 115 116 113 105 110 111 111 109 107 106 105 104 100 93 89
314 320 310 339 335 319 45 23 35 321 296 323 233 125 92 85 79 87 101 112 113 116 119 118 114 114 115 117 111 114 114 112 113 113 113 113 114 115 116 112 106 100 92 86
345 296 299 312 341 320 23 14 352 357 329 345 70 101 100 99 80 51 81 89 99 106 109 108 110 114 117 114 113 114 113 113 115 115 116 119 120 119 119 114 111 107 98 83
0 323 287 356 17 353 0 321 313 277 336 345 322 125 122 118 103 86 99 100 97 99 103 107 108 107 103 109 110 111 111 112 111 111 111 117 124 121 120 118 110 102 95 86
344 347 14 350 352 98 355 321 303 315 10 305 31 46 102 96 89 108 99 88 91 97 103 104 103 99 100 105 106 104 106 104 106 104 103 100 107 117 122 115 111 104 92 80
347 328 356 305 326 26 356 343 2 308 330 98 76 95 98 97 93 95 99 97 99 105 109 105 102 98 101 105 107 105 102 108 106 105 101 96 100 105 109 111 107 99 95 80
314 11 311 333 340 321 318 281 281 269 253 76 100 94 104 98 91 90 94 99 105 108 109 107 104 97 88 96 103 105 107 108 107 102 99 96 96 98 99 100 96 85 70 65
309 15 265 310 55 336 323 343 1 48 102 101 94 99 95 97 90 86 75 85 101 105 104 106 101 93 89 90 93 99 108 109 105 101 99 100 98 91 81 77 74 75 74 76
322 309 325 277 348 330 2 350 6 43 72 96 89 95 100 88 85 81 70 72 79 91 96 97 96 95 93 93 91 95 104 108 104 103 102 97 92 92 88 73 73 86 61 48
339 332 344 331 342 303 301 331 32 48 69 86 95 83 82 97 94 90 79 75 78 88 92 87 88 89 90 94 94 93 101 109 112 108 101 100 104 106 111 109 94 57 64 68